User: anonymous   Login
Location: Livonia
(42.3680°N, 83.3530°W)
Time: 23:10:26
(UTC-04:00)
Language:

MOZ.5/SAFIR/RUBIN 5/SL-8 - Orbit

View from above orbital plane
View from above orbital plane
View from above satellite
View from above satellite

Ground track
Ground track

The orbit data is extracted from the following two-line orbital elements,

1 28898U 05043G   15091.47903146  .00000814  00000-0  17907-3 0  9997
2 28898 097.8422 270.2159 0019395 205.3476 154.6776 14.59830089501974
Epoch (UTC): 01 April 2015 11:29:48
Eccentricity: 0.0019395
inclination: 97.8422°
perigee height: 680 km
apogee height: 707 km
right ascension of ascending node: 270.2159°
argument of perigee: 205.3476°
revolutions per day: 14.59830089
mean anomaly at epoch: 154.6776°
orbit number at epoch: 50197

The dashed part of the orbit path shows where the satellite is in the earth's shadow,  

DLR